Time,TemperatureF,DewpointF,PressureIn,WindDirection,WindDirectionDegrees,WindSpeedMPH,WindSpeedGustMPH,Humidity,HourlyPrecipIn,Conditions,Clouds,dailyrainin,SoftwareType,DateUTC
2013-11-06 00:13:00,54.2,15.0,30.47,SW,234,0.0,-999.0,21,-99.99,,,0.00,weatherlink.com 1.10,2013-11-06 08:13:00,
2013-11-06 00:28:00,55.3,15.0,30.47,WSW,238,0.0,-999.0,20,-99.99,,,0.00,weatherlink.com 1.10,2013-11-06 08:28:00,
2013-11-06 00:43:00,54.5,19.0,30.47,WSW,243,0.0,-999.0,25,-99.99,,,0.00,weatherlink.com 1.10,2013-11-06 08:43:00,
2013-11-06 00:58:00,53.2,13.0,30.47,SE,140,0.0,-999.0,20,-99.99,,,0.00,weatherlink.com 1.10,2013-11-06 08:58:00,
2013-11-06 01:13:00,52.6,17.0,30.47,SSW,200,0.0,-999.0,24,-99.99,,,0.00,weatherlink.com 1.10,2013-11-06 09:13:00,
2013-11-06 01:27:00,53.3,16.0,30.47,SSW,207,0.0,-999.0,23,-99.99,,,0.00,weatherlink.com 1.10,2013-11-06 09:27:00,
2013-11-06 01:42:00,53.2,15.0,30.47,ESE,113,0.0,-999.0,22,-99.99,,,0.00,weatherlink.com 1.10,2013-11-06 09:42:00,
2013-11-06 01:57:00,53.1,16.0,30.47,South,172,0.0,-999.0,23,-99.99,,,0.00,weatherlink.com 1.10,2013-11-06 09:57:00,
2013-11-06 02:12:00,51.3,15.0,30.47,SSE,164,0.0,-999.0,24,-99.99,,,0.00,weatherlink.com 1.10,2013-11-06 10:12:00,
2013-11-06 02:27:00,51.4,15.0,30.46,SSW,213,2.0,-999.0,23,-99.99,,,0.00,weatherlink.com 1.10,2013-11-06 10:27:00,
2013-11-06 02:42:00,51.6,17.0,30.47,ESE,121,0.0,-999.0,25,-99.99,,,0.00,weatherlink.com 1.10,2013-11-06 10:42:00,
2013-11-06 02:57:00,52.0,16.0,30.47,SSW,201,0.0,-999.0,24,-99.99,,,0.00,weatherlink.com 1.10,2013-11-06 10:57:00,
2013-11-06 03:12:00,52.4,17.0,30.47,SW,225,0.0,-999.0,25,-99.99,,,0.00,weatherlink.com 1.10,2013-11-06 11:12:00,
2013-11-06 03:27:00,50.9,16.0,30.48,West,279,1.0,-999.0,25,-99.99,,,0.00,weatherlink.com 1.10,2013-11-06 11:27:00,
2013-11-06 03:42:00,50.8,17.0,30.48,South,178,0.0,-999.0,26,-99.99,,,0.00,weatherlink.com 1.10,2013-11-06 11:42:00,
2013-11-06 03:57:00,53.0,18.0,30.48,SSW,196,0.0,-999.0,25,-99.99,,,0.00,weatherlink.com 1.10,2013-11-06 11:57:00,
2013-11-06 04:12:00,51.6,16.0,30.48,SE,136,0.0,-999.0,24,-99.99,,,0.00,weatherlink.com 1.10,2013-11-06 12:12:00,
2013-11-06 04:27:00,51.4,16.0,30.48,SW,230,0.0,-999.0,24,-99.99,,,0.00,weatherlink.com 1.10,2013-11-06 12:27:00,
2013-11-06 04:42:00,50.3,16.0,30.48,SW,230,0.0,-999.0,26,-99.99,,,0.00,weatherlink.com 1.10,2013-11-06 12:42:00,
2013-11-06 04:57:00,49.8,17.0,30.48,SW,230,0.0,-999.0,27,-99.99,,,0.00,weatherlink.com 1.10,2013-11-06 12:57:00,
2013-11-06 05:12:00,50.3,19.0,30.48,SW,230,0.0,-999.0,29,-99.99,,,0.00,weatherlink.com 1.10,2013-11-06 13:12:00,
2013-11-06 05:27:00,50.9,18.0,30.48,WSW,240,0.0,-999.0,27,-99.99,,,0.00,weatherlink.com 1.10,2013-11-06 13:27:00,
2013-11-06 05:42:00,50.0,17.0,30.49,WSW,240,0.0,-999.0,27,-99.99,,,0.00,weatherlink.com 1.10,2013-11-06 13:42:00,
2013-11-06 05:57:00,50.8,16.0,30.50,SSW,200,0.0,-999.0,25,-99.99,,,0.00,weatherlink.com 1.10,2013-11-06 13:57:00,
2013-11-06 06:12:00,50.4,17.0,30.50,SSW,200,0.0,-999.0,26,-99.99,,,0.00,weatherlink.com 1.10,2013-11-06 14:12:00,
2013-11-06 06:27:00,50.5,17.0,30.49,SSW,200,0.0,-999.0,26,-99.99,,,0.00,weatherlink.com 1.10,2013-11-06 14:27:00,
2013-11-06 06:42:00,52.6,15.0,30.50,South,173,0.0,-999.0,22,-99.99,,,0.00,weatherlink.com 1.10,2013-11-06 14:42:00,
2013-11-06 06:57:00,55.1,19.0,30.51,SSW,197,0.0,-999.0,24,-99.99,,,0.00,weatherlink.com 1.10,2013-11-06 14:57:00,
2013-11-06 07:12:00,56.6,21.0,30.52,SSW,213,0.0,-999.0,25,-99.99,,,0.00,weatherlink.com 1.10,2013-11-06 15:12:00,
2013-11-06 07:27:00,59.3,19.0,30.52,SSW,213,0.0,-999.0,21,-99.99,,,0.00,weatherlink.com 1.10,2013-11-06 15:27:00,
2013-11-06 07:42:00,62.5,15.0,30.52,SE,140,2.0,-999.0,16,-99.99,,,0.00,weatherlink.com 1.10,2013-11-06 15:42:00,
2013-11-06 07:57:00,64.9,14.0,30.52,SSW,199,13.0,-999.0,14,-99.99,,,0.00,weatherlink.com 1.10,2013-11-06 15:57:00,
2013-11-06 08:12:00,66.5,12.0,30.52,South,171,2.0,-999.0,12,-99.99,,,0.00,weatherlink.com 1.10,2013-11-06 16:12:00,
2013-11-06 08:27:00,67.7,11.0,30.53,SSE,150,2.0,-999.0,11,-99.99,,,0.00,weatherlink.com 1.10,2013-11-06 16:27:00,
2013-11-06 08:42:00,68.8,12.0,30.53,SSE,147,2.0,-999.0,11,-99.99,,,0.00,weatherlink.com 1.10,2013-11-06 16:42:00,
2013-11-06 08:57:00,70.1,11.0,30.53,SSE,168,2.0,-999.0,10,-99.99,,,0.00,weatherlink.com 1.10,2013-11-06 16:57:00,
2013-11-06 09:12:00,71.0,9.0,30.53,SE,124,3.0,-999.0,9,-99.99,,,0.00,weatherlink.com 1.10,2013-11-06 17:12:00,
2013-11-06 09:27:00,71.4,9.0,30.52,South,175,5.0,-999.0,9,-99.99,,,0.00,weatherlink.com 1.10,2013-11-06 17:27:00,
2013-11-06 09:42:00,72.5,13.0,30.52,SSE,160,3.0,-999.0,10,-99.99,,,0.00,weatherlink.com 1.10,2013-11-06 17:42:00,
2013-11-06 09:57:00,73.1,8.0,30.52,South,175,0.0,-999.0,8,-99.99,,,0.00,weatherlink.com 1.10,2013-11-06 17:57:00,
2013-11-06 10:12:00,73.4,8.0,30.52,SE,137,0.0,-999.0,8,-99.99,,,0.00,weatherlink.com 1.10,2013-11-06 18:12:00,
2013-11-06 10:27:00,75.4,7.0,30.51,SE,134,0.0,-999.0,7,-99.99,,,0.00,weatherlink.com 1.10,2013-11-06 18:27:00,
2013-11-06 10:42:00,75.3,10.0,30.50,SSE,156,2.0,-999.0,8,-99.99,,,0.00,weatherlink.com 1.10,2013-11-06 18:42:00,
2013-11-06 10:57:00,74.6,9.0,30.50,South,190,1.0,-999.0,8,-99.99,,,0.00,weatherlink.com 1.10,2013-11-06 18:57:00,
2013-11-06 11:12:00,76.7,5.0,30.49,ESE,102,1.0,-999.0,6,-99.99,,,0.00,weatherlink.com 1.10,2013-11-06 19:12:00,
2013-11-06 11:27:00,78.2,9.0,30.48,SE,134,3.0,-999.0,7,-99.99,,,0.00,weatherlink.com 1.10,2013-11-06 19:27:00,
2013-11-06 11:42:00,79.0,6.0,30.48,North,350,5.0,-999.0,6,-99.99,,,0.00,weatherlink.com 1.10,2013-11-06 19:42:00,
2013-11-06 11:57:00,78.9,10.0,30.47,NNW,348,2.0,-999.0,7,-99.99,,,0.00,weatherlink.com 1.10,2013-11-06 19:57:00,
2013-11-06 12:12:00,78.5,9.0,30.47,North,9,0.0,-999.0,7,-99.99,,,0.00,weatherlink.com 1.10,2013-11-06 20:12:00,
2013-11-06 12:27:00,79.3,10.0,30.46,NNW,347,0.0,-999.0,7,-99.99,,,0.00,weatherlink.com 1.10,2013-11-06 20:27:00,
2013-11-06 12:42:00,80.7,7.0,30.45,SSE,151,2.0,-999.0,6,-99.99,,,0.00,weatherlink.com 1.10,2013-11-06 20:42:00,
2013-11-06 12:57:00,80.3,11.0,30.44,NNE,15,0.0,-999.0,7,-99.99,,,0.00,weatherlink.com 1.10,2013-11-06 20:57:00,
2013-11-06 13:13:00,81.6,12.0,30.44,NW,305,0.0,-999.0,7,-99.99,,,0.00,weatherlink.com 1.10,2013-11-06 21:13:00,
2013-11-06 13:28:00,82.5,12.0,30.44,SSW,202,0.0,-999.0,7,-99.99,,,0.00,weatherlink.com 1.10,2013-11-06 21:28:00,
2013-11-06 13:43:00,83.1,13.0,30.43,SE,144,0.0,-999.0,7,-99.99,,,0.00,weatherlink.com 1.10,2013-11-06 21:43:00,
2013-11-06 13:58:00,81.8,12.0,30.43,ESE,117,0.0,-999.0,7,-99.99,,,0.00,weatherlink.com 1.10,2013-11-06 21:58:00,
2013-11-06 14:13:00,81.9,8.0,30.43,NNE,12,1.0,-999.0,6,-99.99,,,0.00,weatherlink.com 1.10,2013-11-06 22:13:00,
2013-11-06 14:28:00,81.4,15.0,30.43,SE,134,0.0,-999.0,8,-99.99,,,0.00,weatherlink.com 1.10,2013-11-06 22:28:00,
2013-11-06 14:43:00,83.3,13.0,30.42,NE,49,0.0,-999.0,7,-99.99,,,0.00,weatherlink.com 1.10,2013-11-06 22:43:00,
2013-11-06 14:58:00,82.1,12.0,30.42,NE,43,0.0,-999.0,7,-99.99,,,0.00,weatherlink.com 1.10,2013-11-06 22:58:00,
2013-11-06 15:13:00,82.1,12.0,30.42,East,95,0.0,-999.0,7,-99.99,,,0.00,weatherlink.com 1.10,2013-11-06 23:13:00,
2013-11-06 15:28:00,81.5,12.0,30.43,North,351,0.0,-999.0,7,-99.99,,,0.00,weatherlink.com 1.10,2013-11-06 23:28:00,
2013-11-06 15:43:00,81.2,14.0,30.42,ESE,107,0.0,-999.0,8,-99.99,,,0.00,weatherlink.com 1.10,2013-11-06 23:43:00,
2013-11-06 15:58:00,80.7,14.0,30.42,North,5,2.0,-999.0,8,-99.99,,,0.00,weatherlink.com 1.10,2013-11-06 23:58:00,
2013-11-06 16:13:00,80.0,13.0,30.43,North,355,1.0,-999.0,8,-99.99,,,0.00,weatherlink.com 1.10,2013-11-07 00:13:00,
2013-11-06 16:28:00,78.3,15.0,30.43,North,5,0.0,-999.0,9,-99.99,,,0.00,weatherlink.com 1.10,2013-11-07 00:28:00,
2013-11-06 16:43:00,76.7,14.0,30.43,North,355,0.0,-999.0,9,-99.99,,,0.00,weatherlink.com 1.10,2013-11-07 00:43:00,
2013-11-06 16:58:00,73.6,18.0,30.43,SSW,212,3.0,-999.0,12,-99.99,,,0.00,weatherlink.com 1.10,2013-11-07 00:58:00,
2013-11-06 17:13:00,70.8,19.0,30.43,SSW,211,0.0,-999.0,14,-99.99,,,0.00,weatherlink.com 1.10,2013-11-07 01:13:00,
2013-11-06 17:28:00,69.3,16.0,30.43,SSW,212,2.0,-999.0,13,-99.99,,,0.00,weatherlink.com 1.10,2013-11-07 01:28:00,
2013-11-06 17:43:00,69.1,14.0,30.44,SW,216,1.0,-999.0,12,-99.99,,,0.00,weatherlink.com 1.10,2013-11-07 01:43:00,
2013-11-06 17:58:00,68.6,17.0,30.45,SW,215,0.0,-999.0,14,-99.99,,,0.00,weatherlink.com 1.10,2013-11-07 01:58:00,
2013-11-06 18:13:00,68.0,15.0,30.45,SW,215,0.0,-999.0,13,-99.99,,,0.00,weatherlink.com 1.10,2013-11-07 02:13:00,
2013-11-06 18:28:00,67.2,16.0,30.45,SW,217,0.0,-999.0,14,-99.99,,,0.00,weatherlink.com 1.10,2013-11-07 02:28:00,
2013-11-06 18:43:00,66.5,16.0,30.45,SSW,211,0.0,-999.0,14,-99.99,,,0.00,weatherlink.com 1.10,2013-11-07 02:43:00,
2013-11-06 18:58:00,66.2,14.0,30.46,SW,216,0.0,-999.0,13,-99.99,,,0.00,weatherlink.com 1.10,2013-11-07 02:58:00,
2013-11-06 19:13:00,66.0,12.0,30.46,SW,218,0.0,-999.0,12,-99.99,,,0.00,weatherlink.com 1.10,2013-11-07 03:13:00,
2013-11-06 19:28:00,66.1,12.0,30.46,SW,228,1.0,-999.0,12,-99.99,,,0.00,weatherlink.com 1.10,2013-11-07 03:28:00,
2013-11-06 19:43:00,65.3,15.0,30.46,SW,228,0.0,-999.0,14,-99.99,,,0.00,weatherlink.com 1.10,2013-11-07 03:43:00,
2013-11-06 19:58:00,64.2,12.0,30.45,SW,232,0.0,-999.0,13,-99.99,,,0.00,weatherlink.com 1.10,2013-11-07 03:58:00,
2013-11-06 20:13:00,65.8,12.0,30.46,SSW,211,3.0,-999.0,12,-99.99,,,0.00,weatherlink.com 1.10,2013-11-07 04:13:00,
2013-11-06 20:28:00,66.8,10.0,30.46,SW,234,0.0,-999.0,11,-99.99,,,0.00,weatherlink.com 1.10,2013-11-07 04:28:00,
2013-11-06 20:43:00,65.8,13.0,30.47,SW,234,2.0,-999.0,13,-99.99,,,0.00,weatherlink.com 1.10,2013-11-07 04:43:00,
2013-11-06 20:58:00,65.1,13.0,30.46,SW,228,3.0,-999.0,13,-99.99,,,0.00,weatherlink.com 1.10,2013-11-07 04:58:00,
2013-11-06 21:13:00,63.3,13.0,30.47,SW,217,1.0,-999.0,14,-99.99,,,0.00,weatherlink.com 1.10,2013-11-07 05:13:00,
2013-11-06 21:28:00,63.2,15.0,30.47,SSW,211,2.0,-999.0,15,-99.99,,,0.00,weatherlink.com 1.10,2013-11-07 05:28:00,
2013-11-06 21:43:00,60.9,17.0,30.46,SW,214,0.0,-999.0,18,-99.99,,,0.00,weatherlink.com 1.10,2013-11-07 05:43:00,
2013-11-06 21:58:00,60.4,14.0,30.46,West,261,2.0,-999.0,16,-99.99,,,0.00,weatherlink.com 1.10,2013-11-07 05:58:00,
2013-11-06 22:13:00,61.6,13.0,30.46,SW,215,0.0,-999.0,15,-99.99,,,0.00,weatherlink.com 1.10,2013-11-07 06:13:00,
2013-11-06 22:28:00,61.8,15.0,30.45,SW,232,0.0,-999.0,16,-99.99,,,0.00,weatherlink.com 1.10,2013-11-07 06:28:00,
2013-11-06 22:43:00,62.0,16.0,30.45,SW,232,0.0,-999.0,17,-99.99,,,0.00,weatherlink.com 1.10,2013-11-07 06:43:00,
2013-11-06 22:58:00,61.0,16.0,30.44,SW,232,0.0,-999.0,17,-99.99,,,0.00,weatherlink.com 1.10,2013-11-07 06:58:00,
2013-11-06 23:13:00,59.9,16.0,30.43,SW,232,0.0,-999.0,18,-99.99,,,0.00,weatherlink.com 1.10,2013-11-07 07:13:00,
2013-11-06 23:28:00,58.8,16.0,30.43,SW,232,0.0,-999.0,19,-99.99,,,0.00,weatherlink.com 1.10,2013-11-07 07:28:00,
2013-11-06 23:43:00,59.0,18.0,30.43,SW,232,0.0,-999.0,20,-99.99,,,0.00,weatherlink.com 1.10,2013-11-07 07:43:00,
2013-11-06 23:58:00,58.0,17.0,30.42,SW,228,1.0,-999.0,20,-99.99,,,0.00,weatherlink.com 1.10,2013-11-07 07:58:00,